• In Netherlands
  • List of Countries
  • For 7 days
  • Water Temperature
  • Satellite Maps
  • Weather Map
  • Weather Widgets
  • user-avatar
    Login

    Hourly Weather Satif

    Today, 24 January, Wednesday

    Time Temperature Precipitation Wind Pressure Humidity
    00:00 +6°C° 0 mm 1 mps 677 mmHg 72%
    01:00 +5°C° 0 mm 1 mps 677 mmHg 70%
    02:00 +5°C° 0 mm 1 mps 677 mmHg 68%
    03:00 +5°C° 0 mm 1 mps 677 mmHg 66%
    04:00 +5°C° 0 mm 1 mps 677 mmHg 64%
    05:00 +5°C° 0 mm 1 mps 677 mmHg 62%
    06:00 +4°C° 0 mm 1 mps 677 mmHg 61%
    07:00 +6°C° 0 mm 1 mps 678 mmHg 54%
    08:00 +8°C° 0 mm 1 mps 678 mmHg 47%
    09:00 +10°C° 0 mm 1 mps 679 mmHg 40%
    10:00 +11°C° 0 mm 1 mps 679 mmHg 35%
    11:00 +12°C° 0 mm 1 mps 679 mmHg 30%
    12:00 +14°C° 0 mm 1 mps 680 mmHg 25%
    13:00 +14°C° 0 mm 1 mps 679 mmHg 25%
    14:00 +14°C° 0 mm 1 mps 679 mmHg 25%
    15:00 +15°C° 0 mm 1 mps 679 mmHg 24%
    16:00 +13°C° 0 mm 1 mps 679 mmHg 30%
    17:00 +11°C° 0 mm 1 mps 678 mmHg 36%
    18:00 +9°C° 0 mm 1 mps 678 mmHg 42%
    19:00 +9°C° 0 mm 1 mps 678 mmHg 41%
    20:00 +8°C° 0 mm 2 mps 678 mmHg 41%
    21:00 +7°C° 0 mm 2 mps 678 mmHg 41%
    22:00 +7°C° 0 mm 2 mps 678 mmHg 42%
    23:00 +7°C° 0 mm 2 mps 677 mmHg 44%

    Tomorrow, 25 January, Thursday

    Time Temperature Precipitation Wind Pressure Humidity
    00:00 +6°C° 0 mm 2 mps 677 mmHg 46%
    01:00 +6°C° 0 mm 2 mps 677 mmHg 50%
    02:00 +4°C° 0 mm 3 mps 677 mmHg 54%
    03:00 +4°C° 0 mm 3 mps 676 mmHg 58%
    04:00 +4°C° 0 mm 3 mps 676 mmHg 62%
    05:00 +4°C° 0 mm 3 mps 676 mmHg 66%
    06:00 +3°C° 0 mm 3 mps 676 mmHg 70%
    07:00 +5°C° 0 mm 3 mps 676 mmHg 67%
    08:00 +7°C° 0 mm 3 mps 677 mmHg 64%
    09:00 +8°C° 0 mm 3 mps 677 mmHg 61%
    10:00 +10°C° 0 mm 4 mps 677 mmHg 56%
    11:00 +11°C° 0 mm 4 mps 677 mmHg 51%
    12:00 +12°C° 0 mm 4 mps 677 mmHg 45%
    13:00 +12°C° 0 mm 4 mps 676 mmHg 46%
    14:00 +12°C° 0 mm 4 mps 676 mmHg 46%
    15:00 +13°C° 0 mm 4 mps 675 mmHg 46%
    16:00 +11°C° 0 mm 4 mps 675 mmHg 52%
    17:00 +9°C° 0 mm 3 mps 675 mmHg 59%
    18:00 +8°C° 0 mm 3 mps 674 mmHg 65%
    19:00 +7°C° 0 mm 3 mps 674 mmHg 68%
    20:00 +7°C° 0 mm 3 mps 674 mmHg 71%
    21:00 +5°C° 0 mm 3 mps 674 mmHg 74%
    22:00 +5°C° 0 mm 3 mps 674 mmHg 75%
    23:00 +5°C° 0 mm 3 mps 673 mmHg 76%

    Day after tomorrow, 26 January, Friday

    Time Temperature Precipitation Wind Pressure Humidity
    00:00 +4°C° 0 mm 3 mps 673 mmHg 77%
    01:00 +4°C° 0 mm 3 mps 673 mmHg 79%
    02:00 +4°C° 0 mm 3 mps 672 mmHg 80%
    03:00 +4°C° 0 mm 3 mps 672 mmHg 81%
    04:00 +3°C° 0 mm 3 mps 672 mmHg 81%
    05:00 +3°C° 0 mm 3 mps 672 mmHg 82%
    06:00 +3°C° 0 mm 3 mps 672 mmHg 83%
    07:00 +4°C° 0 mm 3 mps 672 mmHg 78%
    08:00 +5°C° 0 mm 3 mps 672 mmHg 74%
    09:00 +7°C° 0 mm 4 mps 672 mmHg 69%
    10:00 +8°C° 0.1 mm 4 mps 673 mmHg 64%
    11:00 +10°C° 0.1 mm 4 mps 673 mmHg 60%
    12:00 +11°C° 0.1 mm 4 mps 673 mmHg 55%
    13:00 +10°C° 0.7 mm 4 mps 672 mmHg 62%
    14:00 +8°C° 0.7 mm 4 mps 672 mmHg 68%
    15:00 +7°C° 0.7 mm 4 mps 672 mmHg 75%
    16:00 +6°C° 0.9 mm 4 mps 672 mmHg 79%
    17:00 +5°C° 0.9 mm 4 mps 672 mmHg 82%
    18:00 +4°C° 0.9 mm 3 mps 673 mmHg 86%
    19:00 +4°C° 1.3 mm 4 mps 673 mmHg 86%
    20:00 +3°C° 1.3 mm 4 mps 673 mmHg 86%
    21:00 +3°C° 1.3 mm 4 mps 673 mmHg 87%
    22:00 +3°C° 1.2 mm 4 mps 673 mmHg 86%
    23:00 +2°C° 1.2 mm 3 mps 673 mmHg 85%

    27 January, Saturday

    Time Temperature Precipitation Wind Pressure Humidity
    00:00 +2°C° 1.2 mm 3 mps 673 mmHg 84%
    01:00 +2°C° 0.9 mm 3 mps 672 mmHg 85%
    02:00 +1°C° 0.9 mm 3 mps 672 mmHg 87%
    03:00 +2°C° 0.9 mm 2 mps 672 mmHg 89%
    04:00 +1°C° 1.2 mm 3 mps 671 mmHg 90%
    05:00 +1°C° 1.2 mm 3 mps 671 mmHg 91%
    06:00 +1°C° 1.2 mm 3 mps 671 mmHg 93%
    07:00 0°C° 1.1 mm 4 mps 671 mmHg 92%
    08:00 0°C° 1.1 mm 5 mps 671 mmHg 92%
    09:00 0°C° 1.1 mm 5 mps 671 mmHg 92%
    10:00 -1°C° 0.7 mm 6 mps 671 mmHg 91%
    11:00 -1°C° 0.7 mm 6 mps 671 mmHg 90%
    12:00 0°C° 0.7 mm 7 mps 671 mmHg 89%
    13:00 -1°C° 0.7 mm 6 mps 671 mmHg 89%
    14:00 -1°C° 0.7 mm 6 mps 671 mmHg 89%
    15:00 -1°C° 0.7 mm 6 mps 670 mmHg 90%
    16:00 -1°C° 0.6 mm 6 mps 671 mmHg 91%
    17:00 0°C° 0.6 mm 5 mps 671 mmHg 92%
    18:00 -1°C° 0.6 mm 5 mps 671 mmHg 93%
    19:00 -1°C° 0.7 mm 4 mps 671 mmHg 94%
    20:00 -1°C° 0.7 mm 4 mps 671 mmHg 94%
    21:00 -1°C° 0.7 mm 4 mps 672 mmHg 94%
    22:00 -1°C° 0.4 mm 4 mps 671 mmHg 94%
    23:00 -1°C° 0.4 mm 4 mps 671 mmHg 94%

    28 January, Sunday

    Time Temperature Precipitation Wind Pressure Humidity
    00:00 -1°C° 0.4 mm 4 mps 671 mmHg 94%
    01:00 -1°C° 0.7 mm 4 mps 671 mmHg 94%
    02:00 -1°C° 0.7 mm 4 mps 671 mmHg 95%
    03:00 0°C° 0.7 mm 3 mps 671 mmHg 95%
    04:00 0°C° 0.2 mm 3 mps 671 mmHg 95%
    05:00 0°C° 0.2 mm 3 mps 671 mmHg 95%
    06:00 +1°C° 0.2 mm 2 mps 671 mmHg 95%
    07:00 +1°C° 0.1 mm 2 mps 672 mmHg 94%
    08:00 +2°C° 0.1 mm 2 mps 672 mmHg 93%
    09:00 +2°C° 0.1 mm 2 mps 672 mmHg 93%
    10:00 +3°C° 0 mm 2 mps 672 mmHg 88%
    11:00 +3°C° 0 mm 2 mps 673 mmHg 84%
    12:00 +4°C° 0 mm 2 mps 673 mmHg 80%
    13:00 +4°C° 0.1 mm 2 mps 673 mmHg 77%
    14:00 +5°C° 0.1 mm 2 mps 673 mmHg 75%
    15:00 +5°C° 0.1 mm 2 mps 673 mmHg 73%
    16:00 +4°C° 0 mm 2 mps 673 mmHg 75%
    17:00 +4°C° 0 mm 2 mps 673 mmHg 77%
    18:00 +3°C° 0 mm 2 mps 673 mmHg 80%
    19:00 +3°C° 0 mm 2 mps 674 mmHg 80%
    20:00 +3°C° 0 mm 1 mps 674 mmHg 81%
    21:00 +3°C° 0 mm 1 mps 675 mmHg 82%
    22:00 +3°C° 0 mm 1 mps 675 mmHg 82%
    23:00 +2°C° 0 mm 1 mps 675 mmHg 82%

    29 January, Monday

    Time Temperature Precipitation Wind Pressure Humidity
    00:00 +2°C° 0 mm 1 mps 675 mmHg 82%
    01:00 +2°C° 0 mm 1 mps 675 mmHg 82%
    02:00 +2°C° 0 mm 1 mps 675 mmHg 82%
    03:00 +1°C° 0 mm 1 mps 675 mmHg 82%
    04:00 +1°C° 0 mm 1 mps 675 mmHg 82%
    05:00 +1°C° 0 mm 1 mps 675 mmHg 82%
    06:00 -1°C° 0 mm 2 mps 676 mmHg 82%
    07:00 +1°C° 0 mm 2 mps 676 mmHg 78%
    08:00 +3°C° 0 mm 2 mps 677 mmHg 73%
    09:00 +4°C° 0 mm 2 mps 677 mmHg 69%
    10:00 +5°C° 0 mm 2 mps 677 mmHg 65%
    11:00 +5°C° 0 mm 3 mps 677 mmHg 61%
    12:00 +7°C° 0 mm 3 mps 678 mmHg 57%
    13:00 +8°C° 0 mm 3 mps 677 mmHg 58%
    14:00 +8°C° 0 mm 3 mps 677 mmHg 59%
    15:00 +7°C° 0 mm 4 mps 677 mmHg 60%
    16:00 +7°C° 0.1 mm 3 mps 677 mmHg 66%
    17:00 +5°C° 0.1 mm 3 mps 676 mmHg 73%
    18:00 +5°C° 0.1 mm 2 mps 676 mmHg 79%
    19:00 +5°C° 0.5 mm 2 mps 676 mmHg 83%
    20:00 +4°C° 0.5 mm 2 mps 676 mmHg 86%
    21:00 +4°C° 0.5 mm 2 mps 676 mmHg 89%
    22:00 +4°C° 0.3 mm 2 mps 676 mmHg 90%
    23:00 +4°C° 0.3 mm 2 mps 676 mmHg 91%
    Show more